Regional Weather Roundup
Issued by NWS

Home | Current Version | Previous Version | Text Only | Print | Product List | Glossary On
Versions: 1 2 3 4 5 6 7 8 9 10 11 12 13 14 15 16 17 18 19 20 21 22 23 24 25 26 27 28 29 30 31 32 33 34 35 36 37 38 39 40 41 42 43 44 45 46 47 48 49
000
ASUS44 KBMX 210210
RWRAL

ALABAMA REGIONAL WEATHER ROUNDUP
NATIONAL WEATHER SERVICE BIRMINGHAM AL
800 PM CST SAT DEC 20 2014

NOTE: "FAIR" INDICATES FEW OR NO CLOUDS BELOW 12,000 FEET
WITH NO SIGNIFICANT WEATHER AND/OR OBSTRUCTIONS TO VISIBILITY.

THE REMARK "TC" DENOTES TEMPERATURE IN DEGREES CELSIUS.

ALZ001>011-014-016>018-020-210300-
NORTH ALABAMA

CITY           SKY/WX    TMP DP  RH WIND       PRES   REMARKS
MUSCLE SHOALS  CLEAR     44  30  57 NE7       30.24R
HUNTSVILLE     CLEAR     42  30  62 N6        30.22S
DECATUR        CLEAR     37  30  75 N6        30.23S WCI  32
HALEYVILLE     FAIR      33  32  96 CALM      30.23S
GADSDEN        CLEAR     36  32  87 CALM      30.21S
$$

ALZ012-013-022-023-030>036-040>044-210300-
WEST CENTRAL ALABAMA

CITY           SKY/WX    TMP DP  RH WIND       PRES   REMARKS
TUSCALOOSA     PTCLDY    40  36  86 CALM      30.21R
$$

ALZ015-024>027-033>036-040>044-210300-
CENTRAL ALABAMA

CITY           SKY/WX    TMP DP  RH WIND       PRES   REMARKS
BIRMINGHAM     PTCLDY    40  36  86 CALM      30.22R
MONTGOMERY     CLOUDY    52  46  80 N5        30.19R
SHELBY CO ARPT CLOUDY    49  41  74 CALM      30.20R
MAXWELL AFB    CLOUDY    50  46  87 N6        30.18R
GREENVILLE     CLOUDY    51  47  86 NE6       30.16R
$$

ALZ019-021-028-029-037-038-045>048-210300-
EAST CENTRAL ALABAMA

CITY           SKY/WX    TMP DP  RH WIND       PRES   REMARKS
ANNISTON       CLOUDY    47  43  86 NE5       30.20F
ALEXANDER CITY CLOUDY    52  46  79 NE6       30.18R
AUBURN         CLOUDY    48  43  81 NE7       30.20R
$$

ALZ051>064-210300-
SOUTHWEST ALABAMA

CITY           SKY/WX    TMP DP  RH WIND       PRES   REMARKS
MOBILE         CLOUDY    49  47  93 NE10      30.15S
BROOKLEY FIELD CLOUDY    52  48  86 N9        30.16S
EVERGREEN      CLOUDY    51  48  89 CALM      30.16S
$$

ALZ049-050-065>069-210300-
SOUTHEAST ALABAMA

CITY           SKY/WX    TMP DP  RH WIND       PRES   REMARKS
DOTHAN         CLOUDY    52  49  89 NE9       30.17R
OZARK          CLOUDY    52  48  88 N8        30.15R
TROY           CLOUDY    52  49  89 NE6       30.17S
EUFAULA        CLOUDY    53  50  89 CALM      30.16S
$$


USA.gov is the U.S. government's official web portal to all federal, state and local government web resources and services.